La Plata, MO

6:59 PM CDT on September 26, 2016 (GMT -0500)
Kirksville Regional

Weather History for KIRK - October, 2010

Change the Weather History Date:

Saturday, October 16, 2010

  Actual Average Record
Temperature  
Mean Temperature 61 °F 53 °F  
Max Temperature 80 °F 64 °F 88 °F (1950)
Min Temperature 41 °F 42 °F 27 °F (1976)
Degree Days  
Heating Degree Days 4 12  
Month to date heating degree days 120 159  
Since 1 July heating degree days 186 266  
Cooling Degree Days 0 0  
Month to date cooling degree days 4 10  
Year to date cooling degree days 1142 937  
Growing Degree Days 11 (Base 50)    
Moisture  
Dew Point 41 °F    
Average Humidity 51    
Maximum Humidity 71    
Minimum Humidity 30    
Precipitation  
Precipitation 0.00 in 0.12 in 1.35 in (1984)
Month to date precipitation T 1.77  
Year to date precipitation 49.28 33.29  
Sea Level Pressure  
Sea Level Pressure 30.07 in    
Wind  
Wind Speed 9 mph (SW)    
Max Wind Speed 18 mph    
Max Gust Speed 24 mph    
Visibility 8 miles    
Events      
T = Trace of Precipitation, MM = Missing Value Source: NWS Daily Summary

Daily Weather History Graph

Daily Weather History Graph

Search for Another Location

Airport or City:

Trip Planner

Search our weather history database for the weather conditions in past years. The results will help you decide how hot, cold, wet, or windy it might be!

Date:

Astronomy

Oct. 16, 2010 Rise Set
Actual Time 7:21 AM CDT 6:29 PM CDT
Civil Twilight 6:54 AM CDT 6:56 PM CDT
Nautical Twilight 6:22 AM CDT 7:27 PM CDT
Astronomical Twilight 5:51 AM CDT 7:59 PM CDT
Moon 3:21 PM CDT (10/16) 1:15 AM CDT (10/16)
Length of Visible Light 12h 01m
Length of Day
11h 07m
Waxing Gibbous, 67% of the Moon is Illuminated
Oct 16
Waxing Gibbous
Oct 22
Full
Oct 30
Last Quarter
Nov 5
New
Nov 13
First Quarter

Hourly Weather History & Observations

Time (CDT) Temp. Windchill Dew Point Humidity Pressure Visibility Wind Dir Wind Speed Gust Speed Precip Events Conditions
12:55 AM 42.1 °F 37.7 °F 33.1 °F 70% 30.13 in 10.0 mi SSE 6.9 mph - N/A   Clear
1:55 AM 43.0 °F 40.3 °F 34.0 °F 71% 30.12 in 10.0 mi South 4.6 mph - N/A   Clear
2:55 AM 43.0 °F 40.3 °F 34.0 °F 71% 30.12 in 10.0 mi South 4.6 mph - N/A   Clear
3:55 AM 44.1 °F 40.8 °F 34.0 °F 68% 30.12 in 10.0 mi South 5.8 mph - N/A   Clear
4:55 AM 42.1 °F 37.7 °F 34.0 °F 73% 30.11 in 10.0 mi South 6.9 mph - N/A   Clear
5:55 AM 46.0 °F 41.4 °F 36.0 °F 68% 30.10 in 10.0 mi South 9.2 mph - N/A   Clear
6:55 AM 46.9 °F - 36.0 °F 66% 30.10 in 6.0 mi SSW 10.4 mph - N/A   Haze
7:55 AM 46.9 °F - 37.0 °F 68% 30.11 in 4.0 mi SSW 8.1 mph - N/A   Haze
8:55 AM 54.0 °F - 37.9 °F 55% 30.11 in 5.0 mi SSW 8.1 mph - N/A   Haze
9:51 AM 60.8 °F - 37.4 °F 42% 30.08 in 2.5 mi SSW 13.8 mph 21.9 mph N/A   Haze
9:55 AM 61.0 °F - 37.9 °F 42% 30.10 in 2.5 mi SSW 15.0 mph 23.0 mph N/A   Haze
10:19 AM 62.6 °F - 39.2 °F 42% 30.08 in 6.0 mi SSW 15.0 mph 20.7 mph N/A   Haze
10:55 AM 64.9 °F - 41.0 °F 42% 30.09 in 4.0 mi South 13.8 mph 20.7 mph N/A   Haze
11:55 AM 71.1 °F - 41.0 °F 34% 30.06 in 6.0 mi SSW 16.1 mph 24.2 mph N/A   Haze
12:55 PM 75.0 °F - 44.1 °F 33% 30.04 in 7.0 mi SSW 11.5 mph 20.7 mph N/A   Clear
1:55 PM 78.1 °F - 45.0 °F 31% 30.00 in 8.0 mi SSW 13.8 mph 20.7 mph N/A   Clear
2:55 PM 80.1 °F - 46.0 °F 30% 29.98 in 9.0 mi WSW 8.1 mph 18.4 mph N/A   Clear
3:55 PM 80.1 °F - 46.9 °F 31% 29.99 in 8.0 mi WSW 6.9 mph 16.1 mph N/A   Clear
4:55 PM 78.8 °F - 48.2 °F 34% 29.99 in 7.0 mi WSW 8.1 mph - N/A   Clear
5:55 PM 73.9 °F - 48.9 °F 41% 30.01 in 10.0 mi WNW 5.8 mph - N/A   Clear
6:55 PM 64.0 °F - 50.0 °F 60% 30.04 in 10.0 mi NW 3.5 mph - N/A   Clear
7:55 PM 64.9 °F - 50.0 °F 58% 30.05 in 10.0 mi NNW 5.8 mph - N/A   Clear
8:55 PM 63.0 °F - 48.9 °F 60% 30.06 in 10.0 mi North 6.9 mph - N/A   Clear
9:55 PM 59.0 °F - 46.9 °F 64% 30.08 in 10.0 mi North 5.8 mph - N/A   Clear
10:55 PM 59.0 °F - 46.0 °F 62% 30.09 in 10.0 mi North 9.2 mph - N/A   Clear
11:55 PM 57.9 °F - 43.0 °F 58% 30.10 in 10.0 mi North 10.4 mph - N/A   Clear